Flag for U.S.A. Weather past 2 weeks in San Francisco, California, U.S.A.

Now
69 °F

Partly sunny.


Feels Like: 69 °F
Forecast: 64 / 72 °F
Wind: 12 mph from Northwest

Location: San Francisco International Airport

Current Time: Aug 29, 2015 at 12:58:49 PM

Latest Report: Aug 29, 2015 at 11:56 AM


Visibility: 10 mi

Pressure: 30.01 "Hg

Humidity: 79%

Dew point: 62 °F

Location of San FranciscoLocation

Historic Weather in San Francisco — Graph

°F

San Francisco temperature yesterday

Maximum temperature yesterday: 92 °F (at 1:56 PM)
Minimum temperature yesterday: 65 °F (at 3:56 AM)
Average temperature yesterday: 71 °F

Past Weeks' High & Low Weather Summary

 TemperatureHumidityPressure
High92 °F (Aug 15, 2:56 PM)91% (Aug 28, 8:56 PM)30.09 "Hg (Aug 28, 8:56 PM)
Low58 °F (Aug 25, 5:56 AM)27% (Aug 15, 2:56 PM)29.81 "Hg (Aug 16, 6:56 PM)
Average67 °F70%29.94 "Hg
* Reported Aug 14 11:56 AM — Aug 29 11:56 AM, San Francisco, Weather by CustomWeather, © 2015

Note: Actual official high and low records may vary slightly from our data, if they occured in-between our weather recording intervals... More about our weather records

Advertising

San Francisco weather history for previous 24 hours

 ConditionsComfort  
Time TempWeatherWind HumidityBarometerVisibility
11:56 AM
Sat, Aug 29
69 °FPartly sunny.12 mph79%30.01 "Hg10 mi
10:56 AM71 °FPartly sunny.9 mph76%30.00 "Hg10 mi
9:56 AM69 °FMostly cloudy.8 mph84%29.99 "Hg10 mi
8:56 AM69 °FMostly cloudy.No wind84%29.98 "Hg10 mi
7:56 AM67 °FMostly cloudy.6 mph87%29.97 "Hg10 mi
6:56 AM66 °FPassing clouds.5 mph90%29.95 "Hg8 mi
5:56 AM67 °FOvercast.No wind81%29.94 "Hg10 mi
4:56 AM67 °FPassing clouds.3 mph85%29.94 "Hg10 mi
3:56 AM67 °FPassing clouds.3 mph81%29.93 "Hg10 mi
2:56 AM67 °FPassing clouds.No wind85%29.93 "Hg10 mi
1:56 AM66 °FPassing clouds.No wind87%29.93 "Hg10 mi
12:56 AM65 °FPassing clouds.6 mph91%29.93 "Hg10 mi
11:56 PM
Fri, Aug 28
65 °FPassing clouds.9 mph91%29.91 "Hg10 mi
10:56 PM66 °FLow clouds.8 mph87%29.92 "Hg10 mi
9:56 PM66 °FPassing clouds.9 mph87%29.91 "Hg10 mi
8:56 PM65 °FPartly cloudy.12 mph91%29.90 "Hg10 mi
7:56 PM66 °FBroken clouds.15 mph87%29.89 "Hg10 mi
6:56 PM67 °FPartly sunny.10 mph81%29.87 "Hg10 mi
5:56 PM68 °FPartly sunny.18 mph76%29.88 "Hg10 mi
4:56 PM73 °FPartly sunny.17 mph62%29.87 "Hg10 mi
3:56 PM81 °FBroken clouds.15 mph49%29.86 "Hg10 mi
2:56 PM85 °FScattered clouds.23 mph39%29.87 "Hg10 mi
1:56 PM92 °FScattered clouds.17 mph27%29.87 "Hg10 mi
12:56 PM80 °FPartly sunny.6 mph60%29.89 "Hg10 mi
Weather by CustomWeather, © 2015

See weather overviewHow to use our weather pages